User: anonymous   Login
Location: Brno
(49.2000°N, 16.6330°E)
Time: 06:44:59
(UTC+02:00)
Language:

Cosmos 1603 - Orbit

View from above orbital plane
View from above orbital plane
View from above satellite
View from above satellite

Ground track
Ground track

The orbit data is extracted from the following two-line orbital elements,

1 15333U 84106A   16209.15680151 -.00000091  00000-0 -22747-4 0  9997
2 15333  71.0273  52.9686 0020785 336.0203  23.9950 14.14044424642314
Epoch (UTC): 27 July 2016 03:45:47
Eccentricity: 0.0020785
inclination: 71.0273°
perigee height: 830 km
apogee height: 860 km
right ascension of ascending node: 52.9686°
argument of perigee: 336.0203°
revolutions per day: 14.14044424
mean anomaly at epoch: 23.9950°
orbit number at epoch: 64231

The dashed part of the orbit path shows where the satellite is in the earth's shadow,  

DLR